Everett, WA

6:37 AM PST on December 07, 2019 (GMT -0800)
Snohomish County

Weather History for KPAE - October, 2019

Change the Weather History Date:

Thursday, October 3, 2019

  Actual Average Record
Temperature  
Mean Temperature 56 °F -  
Max Temperature 60 °F 62 °F 74 °F (1962)
Min Temperature 50 °F 45 °F 34 °F (1968)
Degree Days  
Heating Degree Days 10    
Growing Degree Days 6 (Base 50)    
Moisture  
Dew Point 44 °F    
Average Humidity 69    
Maximum Humidity 86    
Minimum Humidity 53    
Precipitation  
Precipitation 0.00 in - - ()
Sea Level Pressure  
Sea Level Pressure 29.98 in    
Wind  
Wind Speed 11 mph (South)    
Max Wind Speed 17 mph    
Max Gust Speed 25 mph    
Visibility 10 miles    
Events Rain    
Averages and records for this station are not official NWS values.
T = Trace of Precipitation, MM = Missing Value Source: NWS Daily Summary

Daily Weather History Graph

Daily Weather History Graph

Search for Another Location

Airport or City:

Astronomy

Oct. 03, 2019 Rise Set
Actual Time 7:10 AM PDT 6:44 PM PDT
Civil Twilight 6:40 AM PDT 7:15 PM PDT
Nautical Twilight 6:04 AM PDT 7:51 PM PDT
Astronomical Twilight 5:27 AM PDT 8:27 PM PDT
Moon 1:10 PM PDT (10/3) 10:04 PM PDT (10/3)
Length of Visible Light 12h 35m
Length of Day
11h 33m
Waxing Crescent, 31% of the Moon is Illuminated
Oct 3
Waxing Crescent
Oct 5
First Quarter
Oct 13
Full
Oct 21
Last Quarter
Oct 27
New

Hourly Weather History & Observations

Time (PDT) Temp. Dew Point Humidity Pressure Visibility Wind Dir Wind Speed Gust Speed Precip Events Conditions
12:53 AM 55.0 °F 37.9 °F 53% 29.96 in 10.0 mi SSE 6.9 mph - N/A   Overcast
1:53 AM 54.0 °F 39.9 °F 59% 29.96 in 10.0 mi South 8.1 mph - N/A   Overcast
2:53 AM 53.1 °F 43.0 °F 69% 29.97 in 10.0 mi South 10.4 mph - 0.00 in Rain Light Rain
3:53 AM 52.0 °F 44.1 °F 74% 29.96 in 10.0 mi SE 9.2 mph - 0.00 in Rain Light Rain
4:53 AM 52.0 °F 44.1 °F 74% 29.96 in 10.0 mi SSE 11.5 mph - 0.00 in Rain Light Rain
5:53 AM 51.1 °F 44.1 °F 77% 29.96 in 10.0 mi SE 6.9 mph - 0.00 in   Overcast
6:53 AM 52.0 °F 43.0 °F 71% 29.97 in 10.0 mi SSE 13.8 mph - N/A   Overcast
7:53 AM 52.0 °F 45.0 °F 77% 29.97 in 10.0 mi South 16.1 mph 25.3 mph N/A   Mostly Cloudy
8:00 AM 52.0 °F 45.0 °F 77% 29.97 in 10.0 mi South 17.3 mph 25.3 mph N/A   Mostly Cloudy
8:53 AM 53.1 °F 46.0 °F 77% 29.98 in 10.0 mi South 12.7 mph - N/A   Mostly Cloudy
9:53 AM 54.0 °F 46.0 °F 75% 30.00 in 10.0 mi South 16.1 mph 25.3 mph N/A   Scattered Clouds
9:55 AM 55.0 °F 46.0 °F 72% 29.99 in 10.0 mi South 15.0 mph 25.3 mph N/A   Mostly Cloudy
10:53 AM 57.0 °F 45.0 °F 64% 29.99 in 10.0 mi South 16.1 mph - N/A   Mostly Cloudy
11:53 AM 57.9 °F 43.0 °F 58% 29.99 in 10.0 mi South 11.5 mph 20.7 mph N/A   Overcast
12:00 PM 57.0 °F 42.1 °F 57% 29.99 in 10.0 mi South 15.0 mph 24.2 mph N/A   Scattered Clouds
12:53 PM 59.0 °F 43.0 °F 55% 29.98 in 10.0 mi South 17.3 mph - N/A   Mostly Cloudy
1:53 PM 59.0 °F 43.0 °F 55% 29.97 in 10.0 mi South 11.5 mph - N/A   Mostly Cloudy
2:53 PM 60.1 °F 46.0 °F 60% 29.96 in 10.0 mi SSW 9.2 mph - N/A   Partly Cloudy
3:53 PM 57.0 °F 45.0 °F 64% 29.98 in 10.0 mi SW 11.5 mph - N/A   Scattered Clouds
4:53 PM 55.9 °F 43.0 °F 62% 29.98 in 10.0 mi South 11.5 mph - N/A   Overcast
5:53 PM 55.9 °F 41.0 °F 57% 29.99 in 10.0 mi South 11.5 mph - N/A   Clear
6:53 PM 54.0 °F 43.0 °F 66% 29.99 in 10.0 mi SSE 11.5 mph - N/A   Partly Cloudy
7:53 PM 52.0 °F 45.0 °F 77% 30.00 in 10.0 mi Variable 5.8 mph - N/A   Mostly Cloudy
8:53 PM 52.0 °F 46.0 °F 80% 30.01 in 10.0 mi SE 8.1 mph - N/A   Overcast
9:53 PM 51.1 °F 46.9 °F 86% 30.01 in 10.0 mi Variable 4.6 mph - N/A   Overcast
10:53 PM 51.1 °F 46.9 °F 86% 30.02 in 10.0 mi SSE 12.7 mph - N/A   Mostly Cloudy
11:53 PM 50.0 °F 46.0 °F 86% 30.02 in 10.0 mi SSE 9.2 mph - N/A   Mostly Cloudy